Regional Weather Roundup
Issued by NWS

Home | Current Version | Previous Version | Graphics & Text | Print | Product List | Glossary On
Versions: 1 2 3 4 5 6 7 8 9 10 11 12 13 14 15 16 17 18 19 20 21 22 23 24 25 26 27 28 29 30 31 32 33 34 35 36 37 38 39 40 41 42 43 44 45 46 47 48 49 50
000
ASUS43 KFSD 252010
RWRSD

WEATHER ROUNDUP FOR SOUTH DAKOTA
NATIONAL WEATHER SERVICE SIOUX FALLS SD
300 PM CDT FRI JUL 25 2014

NOTE: "FAIR" INDICATES FEW OR NO CLOUDS BELOW 12,000 FEET WITH NO
SIGNIFICANT WEATHER AND/OR OBSTRUCTIONS TO VISIBILITY.


SDZ001>005-009-010-012>017-252100-
NORTHWEST AND NORTH CENTRAL SOUTH DAKOTA

CITY           SKY/WX    TMP DP  RH WIND       PRES   REMARKS
BUFFALO          N/A     79  45  29 SE6       29.85F
FAITH            N/A     82  44  26 N10       29.89F
MOBRIDGE       SUNNY     83  49  30 N14       29.82F
$$

SDZ012>016-024>037-041>051-057-063-072>074-252100-
SOUTHWEST AND SOUTH CENTRAL SOUTH DAKOTA

CITY           SKY/WX    TMP DP  RH WIND       PRES   REMARKS
RAPID CTY ARPT SUNNY     78  50  37 CALM      29.94F
PIERRE         SUNNY     87  47  24 N14G25    29.82F
CUSTER         SUNNY     76  46  34 VRB6      30.06F
ELLSWORTH AFB  SUNNY     79  46  31 SE2       29.94F
PHILIP         SUNNY     88  42  20 MISG      29.88F
PINE RIDGE     SUNNY     80  48  32 NE7       29.96F
WINNER         FAIR      93  66  40 N14       29.84S HX  96
$$

SDZ004>011-016>023-039-040-252100-
NORTHEAST SOUTH DAKOTA

CITY           SKY/WX    TMP DP  RH WIND       PRES   REMARKS
ABERDEEN       CLOUDY    76  68  76 N8        29.81S
WATERTOWN      CLOUDY    77  69  76 NW8       29.80R
SISSETON         N/A     74  69  85 N7        29.78R
$$

SDZ017-020-022-023-036>040-048>070-252100-
SOUTHEAST SOUTH DAKOTA

CITY           SKY/WX    TMP DP  RH WIND       PRES   REMARKS
SIOUX FALLS    PTSUNNY   82  72  71 VRB5      29.79S
HURON          CLOUDY    79  68  69 N13       29.80R
CHAMBERLAIN    SUNNY     86  69  56 N12G18    29.81S
MITCHELL       SUNNY     88  71  57 N9        29.78S
YANKTON        PTSUNNY   84  72  65 NW5       29.78S
$$

ABBREVIATIONS USED IN REMARKS
   TC - TEMPERATURE IN CELSIUS
  WCI - WIND CHILL INDEX
   HX - HEAT INDEX
  VSB - VISIBILITY




USA.gov is the U.S. government's official web portal to all federal, state and local government web resources and services.